Home > Weather > Québec > Past weeks

Flag for Canada Past Weather in Québec, Quebec, Canada — Yesterday and Last 2 Weeks

Now
79 °F

Broken clouds.


Feels Like: 80 °F
Forecast: N/A
Wind: 14 mph from West

Location: Quebec Weather Station

Current Time: Jul 23, 2016 at 5:16:11 PM

Latest Report: Jul 23, 2016 at 4:00 PM


Visibility: 20 mi

Pressure: 29.72 "Hg

Humidity: 58%

Dew Point: 63 °F

Location of QuébecLocation

Past Weather in Québec — Graph

°F

Québec Temperature Yesterday

Maximum temperature yesterday: 79 °F (at 4:00 PM)
Minimum temperature yesterday: 66 °F (at 11:00 PM)
Average temperature yesterday: 73 °F

High & Low Weather Summary for the Past Weeks

 TemperatureHumidityPressure
High86 °F (Jul 13, 2:00 PM)100% (Jul 9, 10:00 PM)30.12 "Hg (Jul 9, 10:00 PM)
Low48 °F (Jul 11, 1:00 AM)43% (Jul 19, 4:00 PM)29.59 "Hg (Jul 14, 5:00 PM)
Average67 °F79%29.90 "Hg
* Reported Jul 8 4:00 PM — Jul 23 4:00 PM, Québec, Weather by CustomWeather, © 2016

Note: Actual official high and low records may vary slightly from our data, if they occured in-between our weather recording intervals... More about our weather records

Advertising

Québec Weather History for the Previous 24 Hours

Scroll right to see more
 ConditionsComfort  
Time TempWeatherWind HumidityBarometerVisibility
4:00 PM
Sat, Jul 23
79 °FBroken clouds.14 mph58%29.72 "Hg20 mi
3:00 PM79 °FPartly sunny.13 mph58%29.72 "Hg20 mi
2:00 PM79 °FBroken clouds.8 mph58%29.72 "Hg30 mi
1:00 PM77 °FBroken clouds.9 mph61%29.72 "Hg30 mi
12:00 PM79 °FBroken clouds.8 mph61%29.72 "Hg30 mi
11:00 AM75 °FBroken clouds.10 mph65%29.72 "Hg30 mi
10:00 AM73 °FBroken clouds.7 mph69%29.72 "Hg30 mi
9:00 AM73 °FPartly sunny.8 mph74%29.72 "Hg30 mi
8:00 AM68 °FPartly sunny.6 mph88%29.72 "Hg30 mi
7:00 AM66 °FPartly sunny.6 mph88%29.71 "Hg30 mi
6:00 AM63 °FPassing clouds.6 mph94%29.70 "Hg30 mi
5:00 AM63 °FPassing clouds.8 mph94%29.70 "Hg30 mi
4:00 AM63 °FPassing clouds.6 mph94%29.68 "Hg15 mi
3:00 AM64 °FPassing clouds.7 mph88%29.68 "Hg15 mi
2:00 AM66 °FPassing clouds.7 mph83%29.68 "Hg15 mi
1:00 AM66 °FPassing clouds.2 mph83%29.68 "Hg15 mi
12:00 AM64 °FPassing clouds.3 mph88%29.66 "Hg15 mi
11:00 PM
Fri, Jul 22
66 °FPassing clouds.No wind88%29.68 "Hg15 mi
10:00 PM68 °FPassing clouds.6 mph83%29.70 "Hg15 mi
9:00 PM70 °FPassing clouds.6 mph83%29.67 "Hg30 mi
8:00 PM73 °FScattered clouds.9 mph69%29.65 "Hg30 mi
7:00 PM77 °FScattered clouds.7 mph65%29.62 "Hg30 mi
6:00 PM79 °FBroken clouds.9 mph61%29.63 "Hg30 mi
5:00 PM77 °FBroken clouds.13 mph65%29.62 "Hg30 mi
Weather by CustomWeather, © 2016

See weather overviewHow to use our weather pages